loading
|

STARLINK-31656, 60286

Orbit data source: Space-Track

STARLINK-31656, 60286 is a payload satellite owned by SpaceX/Seattle (US) in LEO that was launched on Sun, 28 Jul 2024 UTC via an FALCON 9 launch vehicle from the Air Force Eastern Test Range (AFETR). Payloads include a variety of satellites, spacecraft, and rockets equipped with specific instruments for various scientific and technological missions. These include communications satellites like Starlink; space stations such as the ISS; scientific satellites like the Hubble; Earth observation satellites from companies like Planet Labs, Umbra, and HawkEye 360; GPS; miniature CubeSats for education and research; and military/defense satellites.

Loading next visibility...
Loading greatness...
STARLINK-31656 details
Identifier
60286, 2024-132J
Orbit
LEO
Last TLE update8 hours ago
Origin
Flag of USSpaceX/Seattle (US)
ManufacturerSpaceX/Seattle
Mission statusOperational
MissionUnknown
Bus & MotorSTARLINK V2M, Unknown motor
Mass750 kg wet, ~700 kg dry
Launch date (UTC)
2024-07-28 (2 months ago)
Launch vehicle
FALCON 9
Launch site
Air Force Eastern Test Range (AFETR)
Object type
Payload
Rocket body
Debris
Radar Cross SectionLarge (>1 m²)

Expand to show TLE details & history

TLE from 8 hours ago
0 STARLINK-31656
1 60286U 24132J   24261.60299661  .00048143  00000-0  12043-2 0  9990
2 60286  53.1598  32.0255 0001698 132.5950 227.5198 15.39661810  9172
Epoch: 2024-09-17T14:28Z
Definitive object data (Epoch: 2024-09-17T14:28:18.907Z)
Latitude-0.00003°
Longitude177.93141°
Altitude448.795 km
Speed7.644 km/s
True Right ascension02h 08m 06s
True Declination0° 00' 00"
Sunlit
Object was in full shadow at TLE epoch
Predictive object data (real-time)
Latitude44.9526°
Longitude-135.59451°
Altitude451.328 km
Speed7.647 km/s
Apparent Right ascension04h 16m 57s
Apparent Declination4° 25' 50"
Sunlit
Object is in daylight
Predictive observer data (real-time)
Local Sidereal Time15:20:35
Azimuth340.351° N
Elevation-43.798°
Doppler factor1
Orbital elements
Apogee448.525 km
Perigee446.207 km
Semi-major axis6,825.503 km
Eccentricity0.0001698
Inclination53.1598°
RAAN32.0255°
Arg. of periapsis132.595°
True anomaly227.50545°
Mean anomaly227.5198°
Eccentric anomaly227.51263°
Mean motion3.84894 °/min
BSTAR0.0012043
Period93.53 mins
No data available

STARLINK-31656 Visibility forecast

Observer location: 39.9160978°, -105.1181434

STARLINK-31656 is not visible in the next 10 days
Span
Click to sort rows by Start time (UTC) header in descending order
Start Az.
Max El. time (UTC)
Max El. Az.
Max El.
End time (UTC)
End Az.